Time,TemperatureF,DewpointF,PressureIn,WindDirection,WindDirectionDegrees,WindSpeedMPH,WindSpeedGustMPH,Humidity,HourlyPrecipIn,Conditions,Clouds,dailyrainin,SolarRadiationWatts/m^2,SoftwareType,DateUTC
2013-07-13 00:04:00,65.9,65.0,29.91,East,98,1.0,1.0,95,0.00,,,0.00,0,weatherlink.com 1.10,2013-07-13 04:04:00,
2013-07-13 00:19:00,65.8,64.0,29.91,ESE,105,0.0,1.0,95,0.00,,,0.00,0,weatherlink.com 1.10,2013-07-13 04:19:00,
2013-07-13 00:34:00,65.8,64.0,29.91,SSE,148,0.0,1.0,95,0.00,,,0.00,0,weatherlink.com 1.10,2013-07-13 04:34:00,
2013-07-13 00:49:00,65.8,64.0,29.92,ESE,102,0.0,3.0,95,0.00,,,0.00,0,weatherlink.com 1.10,2013-07-13 04:49:00,
2013-07-13 01:04:00,65.7,64.0,29.92,ESE,104,0.0,3.0,95,0.00,,,0.00,0,weatherlink.com 1.10,2013-07-13 05:04:00,
2013-07-13 01:19:00,65.7,64.0,29.93,ESE,104,0.0,2.0,95,0.00,,,0.00,0,weatherlink.com 1.10,2013-07-13 05:19:00,
2013-07-13 01:34:00,66.2,65.0,29.92,WNW,296,0.0,2.0,95,0.00,,,0.00,0,weatherlink.com 1.10,2013-07-13 05:34:00,
2013-07-13 01:49:00,66.8,64.0,29.92,NE,51,0.0,2.0,91,0.00,,,0.00,0,weatherlink.com 1.10,2013-07-13 05:49:00,
2013-07-13 02:04:00,67.8,64.0,29.92,ENE,69,0.0,8.0,88,0.00,,,0.00,0,weatherlink.com 1.10,2013-07-13 06:04:00,
2013-07-13 02:19:00,67.8,64.0,29.93,NE,38,0.0,3.0,87,0.00,,,0.00,0,weatherlink.com 1.10,2013-07-13 06:19:00,
2013-07-13 02:34:00,67.5,64.0,29.92,NE,38,0.0,1.0,88,0.00,,,0.00,0,weatherlink.com 1.10,2013-07-13 06:34:00,
2013-07-13 02:49:00,66.7,64.0,29.92,ENE,67,0.0,0.0,90,0.00,,,0.00,0,weatherlink.com 1.10,2013-07-13 06:49:00,
2013-07-13 03:04:00,66.2,64.0,29.92,ENE,67,0.0,0.0,91,0.00,,,0.00,0,weatherlink.com 1.10,2013-07-13 07:04:00,
2013-07-13 03:19:00,66.4,64.0,29.91,NE,49,0.0,3.0,90,0.00,,,0.00,0,weatherlink.com 1.10,2013-07-13 07:19:00,
2013-07-13 03:34:00,67.1,64.0,29.91,SSE,165,2.0,6.0,89,0.00,,,0.00,0,weatherlink.com 1.10,2013-07-13 07:34:00,
2013-07-13 03:49:00,68.0,64.0,29.91,SSE,164,2.0,7.0,88,0.00,,,0.00,0,weatherlink.com 1.10,2013-07-13 07:49:00,
2013-07-13 04:04:00,68.0,64.0,29.91,NNW,337,1.0,4.0,88,0.00,,,0.00,0,weatherlink.com 1.10,2013-07-13 08:04:00,
2013-07-13 04:19:00,67.6,64.0,29.91,NNW,337,0.0,1.0,89,0.00,,,0.00,0,weatherlink.com 1.10,2013-07-13 08:19:00,
2013-07-13 04:34:00,68.4,65.0,29.91,East,87,1.0,6.0,88,0.00,,,0.00,0,weatherlink.com 1.10,2013-07-13 08:34:00,
2013-07-13 04:49:00,68.6,65.0,29.91,SE,125,0.0,5.0,88,0.00,,,0.00,0,weatherlink.com 1.10,2013-07-13 08:49:00,
2013-07-13 05:04:00,68.8,65.0,29.91,ENE,63,1.0,5.0,87,0.00,,,0.00,0,weatherlink.com 1.10,2013-07-13 09:04:00,
2013-07-13 05:19:00,68.7,65.0,29.92,ESE,107,2.0,6.0,87,0.00,,,0.00,0,weatherlink.com 1.10,2013-07-13 09:19:00,
2013-07-13 05:34:00,68.9,65.0,29.92,SSE,150,0.0,8.0,87,0.00,,,0.00,0,weatherlink.com 1.10,2013-07-13 09:34:00,
2013-07-13 05:49:00,68.8,65.0,29.92,SSE,168,1.0,7.0,87,0.00,,,0.00,0,weatherlink.com 1.10,2013-07-13 09:49:00,
2013-07-13 06:04:00,68.5,65.0,29.92,ENE,73,1.0,5.0,87,0.00,,,0.00,0,weatherlink.com 1.10,2013-07-13 10:04:00,
2013-07-13 06:19:00,68.2,65.0,29.93,ESE,120,0.0,4.0,88,0.00,,,0.00,0,weatherlink.com 1.10,2013-07-13 10:19:00,
2013-07-13 06:34:00,68.4,64.0,29.93,East,93,1.0,7.0,87,0.00,,,0.00,0,weatherlink.com 1.10,2013-07-13 10:34:00,
2013-07-13 06:49:00,68.5,64.0,29.94,ESE,112,3.0,4.0,86,0.00,,,0.00,11,weatherlink.com 1.10,2013-07-13 10:49:00,
2013-07-13 07:04:00,68.7,64.0,29.95,ENE,67,4.0,8.0,85,0.00,,,0.00,35,weatherlink.com 1.10,2013-07-13 11:04:00,
2013-07-13 07:19:00,69.0,64.0,29.95,SSE,167,0.0,5.0,85,0.00,,,0.00,51,weatherlink.com 1.10,2013-07-13 11:19:00,
2013-07-13 07:34:00,69.2,64.0,29.95,ESE,103,0.0,3.0,84,0.00,,,0.00,84,weatherlink.com 1.10,2013-07-13 11:34:00,
2013-07-13 07:50:00,69.7,64.0,29.95,ESE,109,0.0,0.0,83,0.00,,,0.00,84,weatherlink.com 1.10,2013-07-13 11:50:00,
2013-07-13 08:05:00,69.9,65.0,29.96,SE,129,2.0,7.0,83,0.00,,,0.00,90,weatherlink.com 1.10,2013-07-13 12:05:00,
2013-07-13 08:20:00,69.7,64.0,29.97,SSE,153,0.0,5.0,83,0.00,,,0.00,95,weatherlink.com 1.10,2013-07-13 12:20:00,
2013-07-13 08:35:00,70.0,64.0,29.97,ESE,107,3.0,9.0,82,0.00,,,0.00,113,weatherlink.com 1.10,2013-07-13 12:35:00,
2013-07-13 08:50:00,70.5,65.0,29.97,South,184,3.0,7.0,82,0.00,,,0.00,93,weatherlink.com 1.10,2013-07-13 12:50:00,
2013-07-13 09:05:00,70.5,64.0,29.98,SE,136,3.0,9.0,81,0.00,,,0.00,153,weatherlink.com 1.10,2013-07-13 13:05:00,
2013-07-13 09:20:00,70.8,65.0,29.98,East,91,5.0,7.0,81,0.00,,,0.00,225,weatherlink.com 1.10,2013-07-13 13:20:00,
2013-07-13 09:35:00,72.3,65.0,29.98,South,189,3.0,8.0,77,0.00,,,0.00,230,weatherlink.com 1.10,2013-07-13 13:35:00,
2013-07-13 09:50:00,71.7,66.0,29.98,SE,132,2.0,7.0,81,0.00,,,0.00,169,weatherlink.com 1.10,2013-07-13 13:50:00,
2013-07-13 10:05:00,71.4,65.0,29.98,East,86,3.0,5.0,81,0.00,,,0.00,207,weatherlink.com 1.10,2013-07-13 14:05:00,
2013-07-13 10:20:00,72.3,66.0,29.98,South,188,2.0,6.0,80,0.00,,,0.00,283,weatherlink.com 1.10,2013-07-13 14:20:00,
2013-07-13 10:35:00,72.0,66.0,29.99,SE,129,3.0,5.0,81,0.00,,,0.00,246,weatherlink.com 1.10,2013-07-13 14:35:00,
2013-07-13 10:50:00,71.7,65.0,29.99,ESE,109,2.0,9.0,79,0.00,,,0.00,279,weatherlink.com 1.10,2013-07-13 14:50:00,
2013-07-13 11:05:00,72.4,66.0,30.00,SE,128,1.0,7.0,79,0.00,,,0.00,214,weatherlink.com 1.10,2013-07-13 15:05:00,
2013-07-13 11:20:00,71.6,65.0,30.00,ENE,75,3.0,15.0,80,0.00,,,0.00,394,weatherlink.com 1.10,2013-07-13 15:20:00,
2013-07-13 11:35:00,71.6,65.0,30.00,East,92,2.0,9.0,80,0.00,,,0.00,174,weatherlink.com 1.10,2013-07-13 15:35:00,
2013-07-13 11:50:00,71.5,65.0,30.01,SE,126,4.0,8.0,81,0.00,,,0.00,204,weatherlink.com 1.10,2013-07-13 15:50:00,
2013-07-13 12:05:00,71.5,65.0,30.02,ESE,119,5.0,7.0,81,0.00,,,0.00,461,weatherlink.com 1.10,2013-07-13 16:05:00,
2013-07-13 12:20:00,72.5,67.0,30.01,SE,124,0.0,12.0,82,0.00,,,0.00,397,weatherlink.com 1.10,2013-07-13 16:20:00,
2013-07-13 12:35:00,73.1,65.0,30.01,SSW,213,2.0,9.0,76,0.00,,,0.00,301,weatherlink.com 1.10,2013-07-13 16:35:00,
2013-07-13 12:50:00,73.1,66.0,30.01,SE,137,3.0,8.0,77,0.00,,,0.00,394,weatherlink.com 1.10,2013-07-13 16:50:00,
2013-07-13 13:05:00,74.6,66.0,30.01,South,172,0.0,9.0,74,0.00,,,0.00,483,weatherlink.com 1.10,2013-07-13 17:05:00,
2013-07-13 13:20:00,75.5,66.0,30.01,ENE,71,4.0,8.0,73,0.00,,,0.00,288,weatherlink.com 1.10,2013-07-13 17:20:00,
2013-07-13 13:35:00,75.0,67.0,30.01,SE,131,3.0,8.0,77,0.00,,,0.00,401,weatherlink.com 1.10,2013-07-13 17:35:00,
2013-07-13 13:50:00,75.2,66.0,30.01,ESE,109,0.0,8.0,74,0.00,,,0.00,383,weatherlink.com 1.10,2013-07-13 17:50:00,
2013-07-13 14:05:00,75.6,67.0,30.00,ESE,105,5.0,8.0,74,0.00,,,0.00,461,weatherlink.com 1.10,2013-07-13 18:05:00,
2013-07-13 14:20:00,76.2,66.0,30.00,East,87,2.0,12.0,71,0.00,,,0.00,436,weatherlink.com 1.10,2013-07-13 18:20:00,
2013-07-13 14:35:00,77.2,66.0,30.00,East,85,2.0,10.0,69,0.00,,,0.00,524,weatherlink.com 1.10,2013-07-13 18:35:00,
2013-07-13 14:50:00,76.8,68.0,29.99,SSE,167,0.0,9.0,73,0.00,,,0.00,490,weatherlink.com 1.10,2013-07-13 18:50:00,
2013-07-13 15:05:00,77.1,66.0,29.99,South,170,2.0,9.0,68,0.00,,,0.00,649,weatherlink.com 1.10,2013-07-13 19:05:00,
2013-07-13 15:20:00,77.3,67.0,29.98,ENE,65,2.0,10.0,70,0.00,,,0.00,596,weatherlink.com 1.10,2013-07-13 19:20:00,
2013-07-13 15:35:00,77.3,67.0,29.99,South,182,3.0,7.0,70,0.00,,,0.00,622,weatherlink.com 1.10,2013-07-13 19:35:00,
2013-07-13 15:50:00,77.2,67.0,29.99,SE,140,5.0,9.0,71,0.00,,,0.00,436,weatherlink.com 1.10,2013-07-13 19:50:00,
2013-07-13 16:05:00,75.9,66.0,30.00,SE,126,5.0,10.0,71,0.00,,,0.00,318,weatherlink.com 1.10,2013-07-13 20:05:00,
2013-07-13 16:20:00,75.6,65.0,29.99,East,84,0.0,8.0,70,0.00,,,0.00,323,weatherlink.com 1.10,2013-07-13 20:20:00,
2013-07-13 16:35:00,76.0,66.0,29.98,East,99,2.0,6.0,72,0.00,,,0.00,471,weatherlink.com 1.10,2013-07-13 20:35:00,
2013-07-13 16:50:00,75.8,67.0,29.98,SE,134,5.0,10.0,73,0.00,,,0.00,710,weatherlink.com 1.10,2013-07-13 20:50:00,
2013-07-13 17:05:00,76.5,67.0,29.98,East,89,3.0,8.0,73,0.00,,,0.00,459,weatherlink.com 1.10,2013-07-13 21:05:00,
2013-07-13 17:20:00,76.7,67.0,29.98,SSW,209,3.0,8.0,72,0.00,,,0.00,374,weatherlink.com 1.10,2013-07-13 21:20:00,
2013-07-13 17:35:00,76.2,67.0,29.98,NNE,15,1.0,8.0,72,0.00,,,0.00,265,weatherlink.com 1.10,2013-07-13 21:35:00,
2013-07-13 17:50:00,75.8,66.0,29.98,SSE,165,2.0,4.0,72,0.00,,,0.00,190,weatherlink.com 1.10,2013-07-13 21:50:00,
2013-07-13 18:05:00,75.5,66.0,29.98,ENE,57,0.0,3.0,73,0.00,,,0.00,162,weatherlink.com 1.10,2013-07-13 22:05:00,
2013-07-13 18:20:00,75.7,67.0,29.98,SSE,165,3.0,3.0,74,0.00,,,0.00,142,weatherlink.com 1.10,2013-07-13 22:20:00,
2013-07-13 18:35:00,74.9,67.0,29.99,South,173,6.0,8.0,75,0.00,,,0.00,139,weatherlink.com 1.10,2013-07-13 22:35:00,
2013-07-13 18:50:00,74.8,67.0,30.00,South,187,2.0,6.0,77,0.00,,,0.00,91,weatherlink.com 1.10,2013-07-13 22:50:00,
2013-07-13 19:06:00,74.5,67.0,30.00,SE,130,0.0,3.0,78,0.00,,,0.00,76,weatherlink.com 1.10,2013-07-13 23:06:00,
2013-07-13 19:21:00,74.2,67.0,30.00,ESE,105,3.0,5.0,77,0.00,,,0.00,72,weatherlink.com 1.10,2013-07-13 23:21:00,
2013-07-13 19:36:00,73.8,66.0,30.00,SSE,159,2.0,5.0,77,0.00,,,0.00,47,weatherlink.com 1.10,2013-07-13 23:36:00,
2013-07-13 19:51:00,73.5,66.0,30.00,SSW,196,3.0,7.0,78,0.00,,,0.00,35,weatherlink.com 1.10,2013-07-13 23:51:00,
2013-07-13 20:06:00,73.3,66.0,30.00,South,183,0.0,7.0,78,0.00,,,0.00,35,weatherlink.com 1.10,2013-07-14 00:06:00,
2013-07-13 20:21:00,73.1,66.0,30.00,South,170,2.0,4.0,77,0.00,,,0.00,19,weatherlink.com 1.10,2013-07-14 00:21:00,
2013-07-13 20:36:00,72.9,65.0,30.00,East,89,0.0,2.0,76,0.00,,,0.00,9,weatherlink.com 1.10,2013-07-14 00:36:00,
2013-07-13 20:51:00,72.5,65.0,30.02,ESE,120,0.0,3.0,77,0.00,,,0.00,0,weatherlink.com 1.10,2013-07-14 00:51:00,
2013-07-13 21:06:00,72.2,65.0,30.01,South,176,0.0,3.0,79,0.00,,,0.00,0,weatherlink.com 1.10,2013-07-14 01:06:00,
2013-07-13 21:21:00,71.8,66.0,30.01,SE,142,0.0,5.0,81,0.00,,,0.00,0,weatherlink.com 1.10,2013-07-14 01:21:00,
2013-07-13 21:36:00,71.3,66.0,30.02,South,173,0.0,2.0,82,0.00,,,0.00,0,weatherlink.com 1.10,2013-07-14 01:36:00,
2013-07-13 21:51:00,71.2,66.0,30.02,South,173,0.0,0.0,83,0.00,,,0.00,0,weatherlink.com 1.10,2013-07-14 01:51:00,
2013-07-13 22:06:00,71.2,65.0,30.03,NE,55,1.0,4.0,81,0.00,,,0.00,0,weatherlink.com 1.10,2013-07-14 02:06:00,
2013-07-13 22:21:00,72.4,65.0,30.03,ESE,123,5.0,8.0,77,0.00,,,0.00,0,weatherlink.com 1.10,2013-07-14 02:21:00,
2013-07-13 22:36:00,72.7,65.0,30.03,NE,51,2.0,8.0,77,0.00,,,0.00,0,weatherlink.com 1.10,2013-07-14 02:36:00,
2013-07-13 22:51:00,72.6,65.0,30.03,ENE,71,1.0,7.0,77,0.00,,,0.00,0,weatherlink.com 1.10,2013-07-14 02:51:00,
2013-07-13 23:06:00,72.5,65.0,30.03,ESE,109,0.0,7.0,77,0.00,,,0.00,0,weatherlink.com 1.10,2013-07-14 03:06:00,
2013-07-13 23:21:00,72.2,65.0,30.02,SE,126,0.0,8.0,77,0.00,,,0.00,0,weatherlink.com 1.10,2013-07-14 03:21:00,
2013-07-13 23:36:00,72.0,65.0,30.03,NNE,14,3.0,8.0,79,0.00,,,0.00,0,weatherlink.com 1.10,2013-07-14 03:36:00,
2013-07-13 23:51:00,71.7,65.0,30.03,SE,126,1.0,3.0,80,0.00,,,0.00,0,weatherlink.com 1.10,2013-07-14 03:51:00,